Location: Betra
(48.4113°N, 8.6634°E)
Time: 18:57:02
(UTC+00:00)

NPP - Pass Details

Date: 23 May 2024
Orbit: 826 x 827 km, 98.7° (Epoch: 24 June)

Event Time Altitude Azimuth Distance (km) Brightness Sun altitude
Rises 00:57:35 0° 17° (NNE) 3,380 8.5 -17.7°
Reaches altitude 10° 00:59:59 10° 22° (NNE) 2,442 7.4 -17.6°
Maximum altitude 01:05:19 58° 101° (E) 961 4.0 -17.2°
Enters shadow 01:08:42 22° 174° (S) 1,717 4.8 -16.9°
